Flight Track Log - Related Links

Times and Time Zones

All times are in EDT time to prevent confusion due to time zone crossing. See the CTL18 flight status page for this flight to view local times or setup timezone preferences in your user account.


Time Position Orientation Groundspeed Altitude Reporting Facility
EDT Latitude Longitude Course Direction KTS MPH feet Rate Location/Type
Tue 08:03:00 PM 43.3619 -84.0057 160° South  Level Estimated
Tue 08:04:00 PM 43.3366 -83.9838 148° Southeast  Level FlightAware Approximate
Tue 08:05:00 PM 43.3080 -83.9718 160° South  Level Estimated
Tue 08:06:00 PM 43.2807 -83.9553 156° South  Level FlightAware Approximate
Tue 08:07:00 PM 43.2533 -83.9388 156° South  Level FlightAware Approximate
Tue 08:08:00 PM 43.2247 -83.9271 163° South  Level Estimated
Tue 08:09:00 PM 43.1965 -83.9134 161° South  Level FlightAware Approximate
Tue 08:10:00 PM 43.1683 -83.8997 161° South  Level FlightAware Approximate
Tue 08:11:00 PM 43.1401 -83.8861 161° South  Level FlightAware Approximate
Tue 08:12:00 PM 43.1115 -83.8746 160° South  Level Estimated
Tue 08:13:00 PM 43.0835 -83.8603 160° South  Level FlightAware Approximate
Tue 08:14:00 PM 43.0555 -83.8461 160° South  Level FlightAware Approximate
Tue 08:15:00 PM 43.0275 -83.8318 160° South  Level FlightAware Approximate
Tue 08:15:15 PM 42.8914 -83.7658 161° South 144 166 5,100  Level Cleveland Center
Tue 08:16:00 PM 42.9995 -83.8176 160° South  Level FlightAware Approximate
Tue 08:16:22 PM 42.8503 -83.7439 159° South 142 163 5,100  Level Cleveland Center
Tue 08:17:00 PM 42.9715 -83.8033 160° South  Level FlightAware Approximate
Tue 08:17:24 PM 42.8114 -83.7247 160° South 144 166 5,100  Level Cleveland Center
Tue 08:18:00 PM 42.9435 -83.7891 160° South  Level FlightAware Approximate
Tue 08:18:25 PM 42.7719 -83.7144 169° South 141 162 5,000  Level Cleveland Center
Tue 08:19:00 PM 42.9154 -83.7749 160° South  Level FlightAware Approximate
Tue 08:19:26 PM 42.7350 -83.6983 162° South 140 161 5,000  Level Cleveland Center
Tue 08:20:27 PM 42.6978 -83.6853 166° South 140 161 5,000 49 Level Cleveland Center
Tue 08:21:28 PM 42.6583 -83.6747 169° South 141 162 5,100 49 Climbing Cleveland Center
Tue 08:22:30 PM 42.6192 -83.6589 163° South 142 163 5,100  Level Cleveland Center
Tue 08:23:31 PM 42.5819 -83.6456 165° South 143 165 5,100 -49 Level Cleveland Center
Tue 08:24:32 PM 42.5386 -83.6294 165° South 143 165 5,000 -295 Descending Cleveland Center
Tue 08:25:33 PM 42.4994 -83.6164 166° South 155 178 4,500 -492 Descending Cleveland Center
Tue 08:26:34 PM 42.4561 -83.6031 167° South 153 176 4,000 -517 Descending Cleveland Center
Tue 08:27:29 PM 42.4167 -83.5897 166° South 149 171 3,500 -517 Descending Cleveland Center
Tue 08:28:30 PM 42.3775 -83.5794 169° South 147 169 3,000 -246 Descending Cleveland Center
Tue 08:29:31 PM 42.3422 -83.5667 165° South 132 152 3,000 -422 Level Cleveland Center
Tue 08:30:38 PM 42.2992 -83.5450 160° South 156 180 2,100 -732 Descending Cleveland Center
Tue 08:31:34 PM 42.2683 -83.5183 147° Southeast 130 150 1,500 -643 Descending Cleveland Center

Login

Don't have an account? Register now (free) for customized features, flight alerts, and more!